Terminal Aerodrome Forecast
Issued by NWS

Home | Current Version | Previous Version | Graphics & Text | Print | Product List | Glossary On
Versions: 1 2 3 4 5 6 7 8 9 10 11 12 13 14 15 16 17 18
000
FTUS43 KGRB 220224 AAA
TAFAUW
TAF AMD
KAUW 220224Z 2202/2224 02005KT P6SM SKC
     FM220400 VRB02KT P6SM SKC
     FM221500 29005KT P6SM SKC=

USA.gov is the U.S. government's official web portal to all federal, state and local government web resources and services.